User: anonymous   Login
Location: Unspecified
(0.0000°N, 0.0000°E)
Time: 19:31:19
(UTC+00:00)
Language:

Radarsat - Orbit

View from above orbital plane
View from above orbital plane
View from above satellite
View from above satellite

Ground track
Ground track

The orbit data is extracted from the following two-line orbital elements,

1 23710U 95059A   18018.30093802  .00000021  00000-0  24595-4 0  9996
2 23710  98.5770  29.3159 0001378  79.1830 280.9509 14.30682674159231
Epoch (UTC): 18 January 2018 07:13:21
Eccentricity: 0.0001378
inclination: 98.5770°
perigee height: 788 km
apogee height: 790 km
right ascension of ascending node: 29.3159°
argument of perigee: 79.1830°
revolutions per day: 14.30682674
mean anomaly at epoch: 280.9509°
orbit number at epoch: 15923

The dashed part of the orbit path shows where the satellite is in the earth's shadow,  

DLR